User: anonymous   Login
Location: Unspecified
(0.0000°N, 0.0000°E)
Time: 02:13:52
(UTC+00:00)
Language:

X-37B - Orbit

View from above orbital plane
View from above orbital plane
View from above satellite
View from above satellite

Ground track
Ground track

The orbit data is extracted from the following two-line orbital elements,

1 45606U 20029A   22176.27687425 0.00003000  00000-0  16842-4 0    04
2 45606  45.0295 198.7158 0014112   0.6202 359.7740 15.78208295    08
Epoch (UTC): 25 June 2022 06:38:41
Eccentricity: 0.0014112
inclination: 45.0295°
perigee height: 326 km
apogee height: 345 km
right ascension of ascending node: 198.7158°
argument of perigee: 0.6202°
revolutions per day: 15.78208295
mean anomaly at epoch: 359.7740°
orbit number at epoch: 0

The dashed part of the orbit path shows where the satellite is in the earth's shadow,  

DLR